FW3814 Weather Reports


time (UTC)temp
F
wind
direction
speed
knots
gust
knots
rain 1hr
in
rain 24hr
in
rain mn
in
humidity
%
barometer
mb
20260507135503 70 250 3.5 7.0 0.00 0.28 0.04 51 1010.6
20260507135003 70 248 3.5 4.3 0.00 0.28 0.04 52 1010.5
20260507134503 69 287 2.6 4.3 0.00 0.28 0.04 52 1010.6
20260507134003 69 297 3.5 7.0 0.00 0.28 0.04 51 1010.7
20260507133503 68 304 5.2 7.0 0.00 0.28 0.04 51 1010.8
20260507133003 69 302 4.3 7.0 0.00 0.28 0.04 51 1010.9
20260507132503 69 268 3.5 7.8 0.00 0.28 0.04 52 1010.8
20260507132003 68 242 3.5 7.8 0.00 0.28 0.04 53 1010.8
20260507131503 68 219 6.1 8.7 0.00 0.28 0.04 54 1010.8
20260507131003 68 254 6.1 8.7 0.00 0.32 0.04 54 1011.1
20260507130503 68 284 5.2 8.7 0.00 0.33 0.04 53 1010.8
20260507130018 68 254 5.2 8.7 0.00 0.38 0.04 53 1011.0
20260507125503 68 247 4.3 7.0 0.00 0.41 0.04 54 1011.0
20260507125003 68 229 4.3 7.0 0.00 0.50 0.04 55 1011.0
20260507124503 68 223 6.1 8.7 0.00 0.51 0.04 55 1011.1
20260507124003 68 229 6.1 8.7 0.00 0.53 0.04 56 1011.2
20260507123503 67 245 5.2 7.0 0.00 0.53 0.04 57 1011.1
20260507123003 67 220 5.2 7.0 0.00 0.53 0.04 58 1011.1
20260507122503 66 221 5.2 7.0 0.00 0.53 0.04 57 1011.1
20260507122024 66 258 3.5 7.0 0.00 0.53 0.04 58 1011.2
20260507121503 67 307 4.3 8.7 0.00 0.53 0.04 57 1010.8
20260507121003 66 119 6.1 8.7 0.00 0.53 0.04 57 1011.0
20260507120503 65 146 5.2 7.0 0.00 0.53 0.04 60 1011.2
20260507120004 65 237 3.5 7.0 0.00 0.53 0.04 60 1011.1
20260507115503 64 255 4.3 6.1 0.00 0.53 0.04 61 1011.1
20260507115003 64 270 3.5 6.1 0.00 0.53 0.04 61 1011.1
20260507114504 64 336 2.6 4.3 0.00 0.53 0.04 62 1011.2
20260507114004 64 295 3.5 4.3 0.00 0.53 0.04 61 1011.2
20260507113504 64 292 3.5 4.3 0.00 0.53 0.04 63 1011.3
20260507113005 63 286 0.9 4.3 0.00 0.53 0.04 68 1011.4
20260507112504 63 13 0.9 4.3 0.00 0.53 0.04 69 1011.5
20260507112004 63 234 2.6 4.3 0.00 0.53 0.04 68 1011.5
20260507111506 62 235 3.5 4.3 0.00 0.53 0.04 68 1011.5
20260507111004 62 266 3.5 5.2 0.00 0.53 0.04 67 1011.5
20260507110507 62 273 2.6 5.2 0.00 0.53 0.04 68 1011.5
20260507110005 62 246 2.6 3.5 0.00 0.53 0.04 68 1011.7
20260507105504 62 277 2.6 3.5 0.00 0.53 0.04 67 1011.6
20260507105004 62 265 1.7 3.5 0.00 0.53 0.04 67 1011.8
20260507104504 62 209 1.7 4.3 0.00 0.53 0.04 67 1011.8
20260507104004 62 249 3.5 4.3 0.00 0.53 0.04 66 1011.9
20260507103504 63 294 3.5 5.2 0.00 0.53 0.04 66 1011.9
20260507103004 63 303 4.3 5.2 0.00 0.53 0.04 66 1011.9
20260507102504 64 317 3.5 5.2 0.00 0.53 0.04 63 1011.9
20260507102006 64 273 3.5 5.2 0.00 0.53 0.04 64 1011.9
20260507101504 64 205 3.5 5.2 0.00 0.53 0.04 65 1012.1
20260507101004 64 186 2.6 5.2 0.00 0.53 0.04 65 1012.0
20260507100504 64 190 3.5 7.8 0.00 0.53 0.04 65 1011.9
20260507100025 64 216 5.2 7.8 0.00 0.53 0.04 65 1012.0
20260507095504 64 230 4.3 7.0 0.00 0.54 0.04 66 1011.9
20260507095004 64 264 4.3 6.1 0.00 0.54 0.04 65 1011.9
20260507094504 64 261 4.3 7.0 0.00 0.54 0.04 65 1012.0
20260507094004 64 233 4.3 7.0 0.00 0.54 0.04 67 1011.9
20260507093504 64 207 4.3 5.2 0.00 0.54 0.04 68 1011.9
20260507093004 64 213 4.3 5.2 0.00 0.54 0.04 69 1011.8
20260507092504 64 216 4.3 7.0 0.00 0.54 0.04 69 1011.7
20260507092004 64 220 4.3 7.0 0.00 0.54 0.04 69 1011.9
20260507091504 63 267 3.5 4.3 0.00 0.54 0.04 72 1011.8
20260507091004 63 307 1.7 4.3 0.00 0.54 0.04 72 1011.7
20260507090504 62 33 0.9 2.6 0.00 0.54 0.04 73 1011.8
20260507090005 62 117 2.6 6.1 0.00 0.54 0.04 73 1011.7
20260507085504 62 129 3.5 6.1 0.00 0.54 0.04 74 1011.7
20260507085004 62 72 2.6 3.5 0.00 0.54 0.04 75 1011.8
20260507084525 62 39 1.7 3.5 0.00 0.54 0.04 75 1011.7
20260507084004 61 229 1.7 3.5 0.00 0.54 0.04 76 1011.7
20260507083504 61 97 4.3 5.2 0.00 0.54 0.04 76 1011.7
20260507083005 61 85 3.5 7.0 0.00 0.54 0.04 78 1011.7
20260507082504 61 145 1.7 7.0 0.00 0.54 0.04 80 1011.8
20260507082025 60 55 1.7 6.1 0.00 0.54 0.04 80 1011.7
20260507081504 59 36 3.5 6.1 0.00 0.54 0.04 80 1011.7
20260507081004 58 22 3.5 3.5 0.00 0.54 0.04 80 1011.6
20260507080504 58 15 3.5 3.5 0.00 0.54 0.04 80 1011.5
20260507080005 58 10 3.5 3.5 0.00 0.54 0.04 80 1011.4
20260507075504 57 9 3.5 4.3 0.00 0.54 0.04 80 1011.5
20260507075004 57 18 4.3 6.1 0.00 0.54 0.04 80 1011.6
20260507074504 57 25 5.2 6.1 0.00 0.54 0.04 81 1011.5
20260507074025 57 32 5.2 6.1 0.00 0.54 0.04 82 1011.5
20260507073525 57 28 4.3 6.1 0.00 0.54 0.04 83 1011.5
20260507073004 56 17 4.3 6.1 0.00 0.54 0.04 84 1011.5
20260507072525 55 15 5.2 6.1 0.00 0.54 0.04 84 1011.4
20260507072004 55 13 5.2 7.0 0.00 0.54 0.04 84 1011.6
20260507071504 54 11 3.5 7.0 0.00 0.54 0.04 85 1011.4
20260507071004 54 7 2.6 4.3 0.00 0.56 0.04 89 1011.5
20260507070504 53 20 3.5 6.1 0.00 0.56 0.04 89 1011.4
20260507070009 53 15 4.3 6.1 0.00 0.56 0.04 89 1011.4
20260507065504 52 7 5.2 7.0 0.00 0.56 0.04 89 1011.3
20260507065004 52 360 5.2 7.0 0.00 0.56 0.04 90 1011.3
20260507064504 52 4 5.2 7.0 0.00 0.56 0.04 90 1011.3
20260507064004 52 9 5.2 7.0 0.00 0.56 0.04 90 1011.2
20260507063504 52 9 5.2 7.0 0.00 0.56 0.04 90 1011.0
20260507063004 51 8 5.2 6.1 0.00 0.56 0.04 90 1011.2
20260507062504 51 13 5.2 9.6 0.00 0.56 0.04 90 1011.1
20260507062004 51 13 6.1 9.6 0.00 0.56 0.04 90 1011.0
20260507061504 51 12 6.1 7.8 0.00 0.56 0.04 90 1011.0
20260507061004 51 19 5.2 7.8 0.00 0.56 0.04 90 1011.1
20260507060525 51 18 5.2 7.0 0.00 0.56 0.04 90 1010.9
20260507060025 51 16 5.2 7.0 0.00 0.56 0.04 90 1010.9
20260507055504 51 16 4.3 7.0 0.00 0.56 0.04 90 1010.8
20260507055004 51 13 3.5 4.3 0.00 0.56 0.04 90 1011.0
20260507054504 50 7 4.3 7.0 0.00 0.56 0.04 90 1010.8
20260507054025 51 13 5.2 7.0 0.00 0.56 0.04 90 1010.8
20260507053504 51 29 5.2 7.0 0.00 0.56 0.04 90 1010.7
20260507053025 51 23 5.2 7.0 0.00 0.56 0.04 91 1010.6
20260507052504 51 20 6.1 8.7 0.00 0.57 0.04 91 1010.5
20260507052004 50 21 6.1 8.7 0.00 0.57 0.04 91 1010.6
20260507051504 50 21 6.1 8.7 0.00 0.57 0.04 91 1010.4
20260507051004 50 48 6.1 8.7 0.00 0.57 0.04 91 1010.3
20260507050504 50 64 6.1 7.0 0.00 0.57 0.04 91 1010.2
20260507050005 50 41 6.1 7.0 0.00 0.57 0.04 91 1010.3
20260507045504 49 17 5.2 7.0 0.00 0.57 0.04 91 1010.4
20260507045025 49 13 4.3 5.2 0.00 0.57 0.04 91 1010.2
20260507044504 49 18 4.3 6.1 0.00 0.57 0.04 91 1010.2
20260507044004 49 36 5.2 7.8 0.00 0.57 0.04 91 1010.0
20260507043504 49 35 6.1 7.8 0.00 0.57 0.04 91 1010.0
20260507043004 49 17 4.3 6.1 0.00 0.57 0.04 91 1009.9
20260507042504 49 8 5.2 6.1 0.00 0.57 0.04 91 1009.9
20260507042025 49 12 4.3 6.1 0.00 0.57 0.04 91 1009.7
20260507041525 50 22 4.3 6.1 0.00 0.57 0.04 91 1009.9
20260507041004 50 12 4.3 6.1 0.00 0.57 0.04 91 1009.7
20260507040504 50 7 4.3 6.1 0.00 0.57 0.04 91 1009.6
20260507040004 50 15 5.2 7.0 0.00 0.57 0.04 91 1009.7
20260507035504 50 18 5.2 7.0 0.00 0.57 0.04 91 1009.9
20260507035004 50 14 6.1 7.8 0.00 0.57 0.04 91 1009.9
20260507034505 50 13 6.1 10.4 0.00 0.57 0.04 91 1009.6
20260507034025 50 16 6.1 10.4 0.00 0.57 0.04 91 1009.7
20260507033525 50 16 7.0 10.4 0.00 0.57 0.04 91 1009.7
20260507033004 50 23 7.0 8.7 0.00 0.58 0.04 91 1009.7
20260507032525 50 37 7.8 7.8 0.00 0.58 0.04 91 1009.7
20260507032004 50 45 7.8 8.7 0.00 0.58 0.04 91 1009.7
20260507031504 50 48 7.8 9.6 0.00 0.58 0.04 91 1009.7
20260507031004 50 49 7.0 9.6 0.00 0.59 0.04 91 1009.7
20260507030504 50 47 6.1 9.6 0.01 0.69 0.04 91 1009.6
20260507030004 50 57 7.0 9.6 0.01 0.69 0.04 91 1009.7
20260507025504 50 47 7.0 9.6 0.01 0.69 0.04 91 1009.7
20260507025004 50 41 7.0 8.7 0.01 0.70 0.04 91 1009.7
20260507024504 50 58 7.0 10.4 0.01 0.73 0.04 91 1009.7
20260507024025 50 49 7.8 10.4 0.01 0.79 0.04 91 1009.5
20260507023525 50 38 7.0 8.7 0.01 0.79 0.04 91 1009.6
20260507023004 50 48 7.0 8.7 0.01 0.79 0.04 91 1009.7
20260507022504 50 49 6.1 7.0 0.01 0.79 0.04 91 1009.7
20260507022004 50 40 7.0 9.6 0.01 0.79 0.04 91 1009.7
20260507021504 50 47 7.8 9.6 0.01 0.79 0.04 91 1009.9
20260507021025 50 60 7.0 8.7 0.01 0.79 0.04 91 1009.7
20260507020504 50 54 6.1 8.7 0.00 0.78 0.02 91 1009.9
20260507020004 50 40 6.1 8.7 0.00 0.78 0.02 91 1009.7
20260507015504 50 35 6.1 7.0 0.00 0.78 0.02 91 1009.9
20260507015004 50 32 5.2 7.0 0.00 0.78 0.02 91 1009.9
20260507014525 50 38 5.2 7.0 0.00 0.78 0.02 91 1010.0
20260507014004 50 48 5.2 7.0 0.00 0.78 0.02 91 1009.7
20260507013504 50 47 4.3 6.1 0.00 0.78 0.02 91 1009.5
20260507013004 50 36 3.5 5.2 0.01 0.78 0.02 91 1009.6
20260507012504 51 20 2.6 5.2 0.01 0.78 0.02 91 1009.6
20260507012025 51 12 2.6 6.1 0.01 0.78 0.02 91 1009.5
20260507011504 51 33 5.2 7.0 0.01 0.78 0.02 90 1009.7
20260507011004 50 31 5.2 7.0 0.01 0.79 0.02 90 1009.4
20260507010504 50 23 4.3 7.0 0.01 0.79 0.02 90 1009.4
20260507010004 51 16 3.5 5.2 0.01 0.79 0.02 90 1009.6
20260507005525 51 17 2.6 3.5 0.01 0.79 0.02 90 1009.6
20260507005004 51 15 2.6 4.3 0.01 0.79 0.02 90 1009.5
20260507004504 51 9 2.6 4.3 0.01 0.79 0.02 90 1009.6
20260507004004 51 12 2.6 4.3 0.01 0.79 0.02 90 1009.4
20260507003504 51 39 3.5 6.1 0.01 0.79 0.02 90 1009.5
20260507003004 51 49 5.2 9.6 0.00 0.78 0.01 90 1009.4
20260507002504 51 47 7.0 9.6 0.00 0.78 0.01 90 1009.3
20260507002025 51 35 7.8 9.6 0.00 0.78 0.01 90 1009.4
20260507001504 51 18 6.1 7.0 0.00 0.78 0.01 90 1009.6
20260507001025 51 2 4.3 7.0 0.00 0.78 0.01 90 1009.5
20260507000505 51 349 3.5 3.5 0.00 0.78 0.01 90 1009.5
20260507000004 51 14 4.3 7.0 0.00 0.78 0.01 90 1009.6
20260506235504 51 17 5.2 7.0 0.00 0.78 0.01 90 1009.5
20260506235004 51 17 4.3 7.0 0.00 0.78 0.01 90 1009.5
20260506234504 51 17 4.3 7.0 0.00 0.78 0.01 90 1009.6
20260506234004 51 25 4.3 5.2 0.00 0.78 0.01 90 1009.5
20260506233504 51 29 5.2 7.0 0.00 0.78 0.01 90 1009.4
20260506233004 51 17 6.1 7.8 0.00 0.78 0.01 90 1009.4
20260506232525 51 15 6.1 7.8 0.01 0.78 0.01 90 1009.4
20260506232004 51 25 7.0 9.6 0.01 0.78 0.01 90 1009.4
20260506231505 51 5 7.8 9.6 0.01 0.78 0.01 90 1009.5
20260506231003 51 12 6.1 9.6 0.01 0.78 0.01 90 1009.4
20260506230503 51 26 7.0 9.6 0.01 0.78 0.01 90 1009.6
20260506230004 51 28 7.0 9.6 0.01 0.78 0.01 90 1009.4
20260506225524 51 25 7.0 9.6 0.01 0.78 0.01 90 1009.3
20260506225003 51 20 7.0 8.7 0.01 0.78 0.01 90 1009.4
20260506224503 51 18 7.8 9.6 0.01 0.78 0.01 90 1009.4
20260506224003 51 21 7.8 9.6 0.02 0.78 0.01 90 1009.4
20260506223503 51 22 7.8 9.6 0.02 0.78 0.01 89 1009.4
20260506223003 51 9 7.0 9.6 0.02 0.78 0.01 89 1009.3
20260506222524 51 6 7.0 9.6 0.01 0.77 0.00 89 1009.3
20260506222003 51 13 6.1 9.6 0.01 0.77 0.00 89 1009.3
20260506221504 51 13 4.3 6.1 0.01 0.77 0.00 89 1009.3
20260506221024 51 16 3.5 6.1 0.01 0.77 0.00 89 1009.4
20260506220524 51 15 3.5 6.1 0.01 0.77 0.00 89 1009.4
20260506220004 51 24 5.2 7.0 0.02 0.77 0.00 89 1009.2
20260506215524 51 25 5.2 7.0 0.02 0.78 0.77 89 1009.2
20260506215004 51 20 4.3 6.1 0.02 0.78 0.77 89 1009.1
20260506214503 51 18 3.5 6.1 0.06 0.78 0.77 89 1009.3
20260506214003 51 6 4.3 5.2 0.06 0.78 0.76 89 1009.1
20260506213503 51 5 4.3 5.2 0.06 0.79 0.76 89 1009.1
20260506213003 51 13 5.2 7.0 0.06 0.80 0.76 89 1009.1
20260506212503 51 22 5.2 7.0 0.06 0.81 0.76 89 1009.1
20260506212003 51 24 5.2 7.0 0.06 0.83 0.76 89 1009.2
20260506211503 51 13 2.6 4.3 0.06 0.83 0.76 88 1009.2
20260506211003 51 356 1.7 3.5 0.06 0.83 0.76 88 1009.2
20260506210503 52 40 2.6 5.2 0.06 0.83 0.76 88 1009.3
20260506210003 51 39 4.3 6.1 0.05 0.81 0.74 88 1009.3
20260506205503 52 19 4.3 6.1 0.05 0.81 0.74 88 1009.0
20260506205003 52 9 3.5 4.3 0.05 0.81 0.74 88 1009.3
20260506204524 52 16 2.6 3.5 0.01 0.78 0.71 88 1009.1
20260506204024 52 48 1.7 3.5 0.00 0.77 0.70 88 1008.8
20260506203503 51 39 3.5 3.5 0.00 0.77 0.70 88 1008.7
20260506203003 51 18 3.5 3.5 0.00 0.77 0.70 88 1008.8
20260506202503 51 15 1.7 3.5 0.00 0.77 0.70 88 1008.8
20260506202003 51 7 1.7 3.5 0.00 0.77 0.70 87 1008.7
20260506201503 51 11 2.6 4.3 0.00 0.77 0.70 87 1008.6
20260506201024 51 20 4.3 4.3 0.00 0.77 0.70 87 1008.7
20260506200524 51 23 4.3 4.3 0.00 0.77 0.70 87 1008.7
20260506200004 51 43 4.3 5.2 0.00 0.77 0.70 87 1008.5
20260506195524 51 36 4.3 6.1 0.00 0.77 0.70 87 1008.5
20260506195024 51 15 4.3 6.1 0.00 0.77 0.70 87 1008.5
20260506194503 52 13 4.3 6.1 0.00 0.77 0.70 87 1008.5
20260506194003 52 26 4.3 6.1 0.00 0.77 0.70 87 1008.4
20260506193524 52 38 4.3 5.2 0.00 0.78 0.70 87 1008.4
20260506193003 52 32 3.5 5.2 0.00 0.79 0.70 87 1008.4
20260506192503 52 18 3.5 5.2 0.01 0.81 0.70 87 1008.3
20260506192024 51 11 3.5 3.5 0.01 0.83 0.70 87 1008.1
20260506191503 52 11 3.5 5.2 0.04 0.83 0.70 87 1008.0
20260506191003 52 17 3.5 5.2 0.06 0.84 0.70 87 1008.1
20260506190503 52 20 1.7 3.5 0.09 0.86 0.70 86 1007.9
20260506190003 52 351 1.7 5.2 0.09 0.86 0.70 86 1007.7
20260506185503 52 346 2.6 5.2 0.11 0.89 0.70 86 1007.7
20260506185003 52 58 2.6 7.0 0.12 0.89 0.70 86 1007.6
20260506184524 52 64 7.0 13.0 0.12 0.89 0.70 86 1007.6
20260506184003 53 78 10.4 13.9 0.13 0.89 0.70 86 1007.1
20260506183524 53 97 11.3 13.9 0.14 0.90 0.70 86 1006.8
20260506183004 53 98 12.2 15.6 0.15 0.90 0.70 86 1006.5
20260506182503 53 77 13.9 17.4 0.15 0.89 0.69 85 1006.5
20260506182024 53 73 13.0 17.4 0.15 0.90 0.69 85 1005.7
20260506181503 53 104 7.8 14.8 0.14 0.87 0.66 84 1006.4
20260506181003 53 106 4.3 7.0 0.12 0.85 0.64 84 1007.4
20260506180503 53 36 3.5 3.5 0.08 0.84 0.60 83 1007.7
20260506180004 53 359 3.5 7.0 0.08 0.84 0.60 83 1007.4
20260506175503 54 29 5.2 7.0 0.07 0.85 0.59 82 1007.4
20260506175003 54 60 3.5 6.1 0.06 0.84 0.58 82 1007.1
20260506174503 54 83 3.5 5.2 0.06 0.84 0.58 82 1006.8
20260506174003 54 90 2.6 5.2 0.05 0.83 0.57 81 1006.8
20260506173503 55 273 2.6 7.0 0.04 0.81 0.56 78 1006.7
20260506173003 55 146 7.0 10.4 0.02 0.81 0.54 78 1006.7
20260506172503 55 111 7.8 10.4 0.01 0.80 0.53 78 1006.3
20260506172003 55 70 6.1 10.4 0.01 0.81 0.53 77 1006.1
20260506171503 55 32 5.2 7.0 0.00 0.81 0.52 77 1006.3
20260506171003 55 11 4.3 7.0 0.00 0.83 0.52 77 1006.4
20260506170503 55 12 4.3 7.8 0.00 0.83 0.52 77 1006.3
20260506170003 56 18 5.2 8.7 0.00 0.83 0.52 77 1006.3
20260506165524 56 17 7.0 9.6 0.00 0.84 0.52 77 1006.0
20260506165003 56 19 7.8 9.6 0.00 0.85 0.52 78 1006.1
20260506164503 56 29 7.8 10.4 0.00 0.86 0.52 78 1006.0
20260506164003 56 24 7.8 10.4 0.00 0.89 0.52 79 1006.0
20260506163503 56 22 7.0 9.6 0.00 0.90 0.52 80 1005.8
20260506163003 56 18 7.8 9.6 0.00 0.91 0.52 80 1005.8
20260506162503 56 14 5.2 8.7 0.00 0.91 0.52 80 1005.7
20260506162003 56 23 4.3 7.0 0.00 0.91 0.52 80 1005.6
20260506161503 57 26 4.3 6.1 0.00 0.91 0.52 80 1005.8
20260506161003 57 18 4.3 7.0 0.00 0.91 0.52 80 1005.6
20260506160503 57 16 5.2 9.6 0.00 0.92 0.52 80 1005.4
20260506160003 57 22 7.0 9.6 0.00 0.92 0.52 80 1005.3
20260506155503 58 29 7.0 9.6 0.00 0.92 0.52 81 1005.3
20260506155024 58 25 7.0 11.3 0.00 0.92 0.52 81 1005.3
20260506154503 58 23 7.8 11.3 0.00 0.93 0.52 81 1005.4
20260506154003 58 29 8.7 12.2 0.00 0.93 0.52 82 1005.4
20260506153503 57 23 8.7 12.2 0.00 0.93 0.52 82 1005.6
20260506153003 57 17 9.6 12.2 0.00 0.93 0.52 83 1005.6
20260506152503 56 20 8.7 13.0 0.00 0.93 0.52 83 1005.5
20260506152003 56 17 7.8 13.0 0.00 0.93 0.52 84 1005.7
20260506151503 56 13 8.7 10.4 0.00 0.93 0.52 85 1005.8
20260506151003 56 23 9.6 10.4 0.00 0.93 0.52 85 1005.5
20260506150503 56 28 7.8 10.4 0.00 0.93 0.52 86 1005.9
20260506150003 55 34 7.8 9.6 0.00 0.93 0.52 86 1005.9
20260506145503 55 48 7.0 8.7 0.00 0.94 0.52 86 1006.1
20260506145024 55 53 7.8 9.6 0.00 0.94 0.52 87 1006.1
20260506144503 55 43 7.8 9.6 0.00 0.94 0.52 87 1006.2
20260506144003 55 40 7.8 9.6 0.00 0.96 0.52 88 1006.0
20260506143503 55 40 7.8 9.6 0.00 0.96 0.52 88 1006.0
20260506143024 55 38 7.0 9.6 0.00 0.97 0.52 88 1006.0
20260506142503 55 35 8.7 12.2 0.00 0.97 0.52 89 1005.9
20260506142024 55 41 9.6 12.2 0.00 0.97 0.52 89 1006.1
20260506141503 56 49 8.7 11.3 0.00 0.97 0.52 90 1006.1
20260506141003 56 42 7.8 9.6 0.04 0.97 0.52 90 1006.2
20260506140503 56 32 7.8 9.6 0.05 0.97 0.52 91 1006.1
20260506140003 56 19 7.0 9.6 0.09 0.98 0.52 91 1006.0